| time (UTC) | temp F | wind direction | speed knots | gust knots | rain 1hr in | rain 24hr in | rain mn in | humidity % | barometer mb |
| 20260506202231 | 73 | 260 | 0.9 | 4.3 | 0.00 | 0.00 | 0.00 | 52 | 1018.1 |
| 20260506201731 | 73 | 258 | 0.9 | 3.5 | 0.00 | 0.00 | 0.00 | 52 | 1018.2 |
| 20260506201238 | 72 | 293 | 0.0 | 3.5 | 0.00 | 0.00 | 0.00 | 54 | 1018.3 |
| 20260506200731 | 72 | 307 | 0.9 | 2.6 | 0.00 | 0.00 | 0.00 | 54 | 1018.3 |
| 20260506200231 | 72 | 282 | 0.9 | 2.6 | 0.00 | 0.00 | 0.00 | 55 | 1018.4 |
| 20260506200001 | 71 | 321 | 0.9 | 3.5 | 0.00 | 0.00 | 0.00 | 57 | 1018.5 |
| 20260506195231 | 71 | 277 | 0.9 | 3.5 | 0.00 | 0.00 | 0.00 | 57 | 1018.5 |
| 20260506194950 | 70 | 284 | 0.0 | 1.7 | 0.00 | 0.00 | 0.00 | 62 | 1018.5 |
| 20260506194232 | 70 | 288 | 0.9 | 4.3 | 0.00 | 0.00 | 0.00 | 61 | 1018.6 |
| 20260506193731 | 70 | 274 | 0.9 | 4.3 | 0.00 | 0.00 | 0.00 | 60 | 1018.7 |
| 20260506193232 | 70 | 259 | 0.9 | 3.5 | 0.00 | 0.00 | 0.00 | 61 | 1018.8 |
| 20260506192951 | 70 | 269 | 0.0 | 2.6 | 0.00 | 0.00 | 0.00 | 60 | 1018.7 |
| 20260506192231 | 70 | 278 | 0.0 | 1.7 | 0.00 | 0.00 | 0.00 | 60 | 1018.8 |
| 20260506191731 | 70 | 274 | 0.0 | 2.6 | 0.00 | 0.00 | 0.00 | 59 | 1018.8 |
| 20260506191232 | 70 | 283 | 0.9 | 4.3 | 0.00 | 0.00 | 0.00 | 58 | 1018.9 |
| 20260506190731 | 70 | 281 | 0.9 | 4.3 | 0.00 | 0.00 | 0.00 | 59 | 1018.9 |
| 20260506190231 | 70 | 5 | 0.0 | 4.3 | 0.00 | 0.00 | 0.00 | 60 | 1018.9 |
| 20260506185731 | 70 | 353 | 0.0 | 4.3 | 0.00 | 0.00 | 0.00 | 61 | 1018.9 |
| 20260506185232 | 70 | 1 | 0.0 | 3.5 | 0.00 | 0.00 | 0.00 | 61 | 1018.9 |
| 20260506184732 | 69 | 278 | 0.9 | 4.3 | 0.00 | 0.00 | 0.00 | 61 | 1018.9 |
| 20260506184249 | 68 | 270 | 0.9 | 4.3 | 0.00 | 0.00 | 0.00 | 64 | 1019.0 |
| 20260506184244 | 69 | 293 | 0.9 | 4.3 | 0.00 | 0.00 | 0.00 | 62 | 1018.9 |
| 20260506183231 | 68 | 276 | 0.9 | 4.3 | 0.00 | 0.00 | 0.00 | 63 | 1019.1 |
| 20260506182731 | 67 | 281 | 0.9 | 4.3 | 0.00 | 0.00 | 0.00 | 64 | 1019.1 |
| 20260506182232 | 67 | 275 | 0.9 | 5.2 | 0.00 | 0.00 | 0.00 | 63 | 1019.2 |
| 20260506181731 | 67 | 277 | 0.9 | 5.2 | 0.00 | 0.00 | 0.00 | 63 | 1019.2 |
| 20260506181234 | 67 | 290 | 0.0 | 2.6 | 0.00 | 0.00 | 0.00 | 65 | 1019.2 |
| 20260506180732 | 66 | 232 | 0.0 | 2.6 | 0.00 | 0.00 | 0.00 | 65 | 1019.1 |
| 20260506180454 | 66 | 285 | 0.0 | 2.6 | 0.00 | 0.00 | 0.00 | 66 | 1019.2 |
| 20260506175732 | 65 | 283 | 0.0 | 2.6 | 0.00 | 0.00 | 0.00 | 67 | 1019.1 |
| 20260506175231 | 65 | 281 | 0.0 | 2.6 | 0.00 | 0.00 | 0.00 | 67 | 1019.2 |
| 20260506174730 | 65 | 322 | 0.0 | 2.6 | 0.00 | 0.00 | 0.00 | 68 | 1019.2 |
| 20260506174232 | 64 | 271 | 0.9 | 3.5 | 0.00 | 0.00 | 0.00 | 69 | 1019.2 |
| 20260506173955 | 64 | 256 | 0.9 | 3.5 | 0.00 | 0.00 | 0.00 | 69 | 1019.3 |
| 20260506173232 | 63 | 281 | 0.9 | 3.5 | 0.00 | 0.00 | 0.00 | 70 | 1019.2 |
| 20260506172725 | 63 | 294 | 0.9 | 3.5 | 0.00 | 0.00 | 0.00 | 71 | 1019.3 |
| 20260506172220 | 63 | 276 | 0.0 | 0.9 | 0.00 | 0.00 | 0.00 | 71 | 1019.3 |
| 20260506171937 | 62 | 275 | 0.0 | 0.9 | 0.00 | 0.00 | 0.00 | 73 | 1019.3 |
| 20260506171206 | 62 | 274 | 0.0 | 0.9 | 0.00 | 0.00 | 0.00 | 73 | 1019.3 |
| 20260506170707 | 62 | 270 | 0.0 | 1.7 | 0.00 | 0.00 | 0.00 | 74 | 1019.3 |
| 20260506170435 | 61 | 270 | 0.0 | 1.7 | 0.00 | 0.00 | 0.00 | 74 | 1019.4 |
| 20260506165703 | 61 | 270 | 0.0 | 1.7 | 0.00 | 0.00 | 0.00 | 74 | 1019.3 |
| 20260506165203 | 61 | 284 | 0.0 | 1.7 | 0.00 | 0.00 | 0.00 | 75 | 1019.4 |
| 20260506164703 | 60 | 276 | 0.9 | 2.6 | 0.00 | 0.00 | 0.00 | 75 | 1019.3 |
| 20260506164204 | 60 | 276 | 0.9 | 2.6 | 0.00 | 0.00 | 0.00 | 76 | 1019.4 |
| 20260506163710 | 60 | 273 | 0.0 | 2.6 | 0.00 | 0.00 | 0.00 | 76 | 1019.4 |
| 20260506163203 | 59 | 273 | 0.0 | 3.5 | 0.00 | 0.00 | 0.00 | 77 | 1019.4 |
| 20260506162703 | 59 | 279 | 0.9 | 3.5 | 0.00 | 0.00 | 0.00 | 78 | 1019.4 |
| 20260506162204 | 58 | 274 | 0.9 | 2.6 | 0.00 | 0.00 | 0.00 | 78 | 1019.4 |
| 20260506161704 | 58 | 276 | 0.0 | 0.9 | 0.00 | 0.00 | 0.00 | 80 | 1019.4 |
| 20260506161204 | 58 | 290 | 0.0 | 0.0 | 0.00 | 0.00 | 0.00 | 80 | 1019.4 |
| 20260506160703 | 58 | 290 | 0.0 | 0.9 | 0.00 | 0.00 | 0.00 | 81 | 1019.3 |
| 20260506160203 | 57 | 290 | 0.0 | 0.9 | 0.00 | 0.00 | 0.00 | 80 | 1019.4 |
| 20260506155703 | 57 | 290 | 0.0 | 0.0 | 0.00 | 0.00 | 0.00 | 81 | 1019.4 |
| 20260506155154 | 57 | 290 | 0.0 | 0.0 | 0.00 | 0.00 | 0.00 | 81 | 1019.4 |
| 20260506154651 | 57 | 288 | 0.0 | 1.7 | 0.00 | 0.00 | 0.00 | 82 | 1019.5 |
| 20260506154132 | 57 | 284 | 0.0 | 0.9 | 0.00 | 0.00 | 0.00 | 81 | 1019.5 |
| 20260506153631 | 56 | 284 | 0.0 | 1.7 | 0.00 | 0.00 | 0.00 | 82 | 1019.5 |
| 20260506153132 | 56 | 287 | 0.0 | 1.7 | 0.00 | 0.00 | 0.00 | 82 | 1019.5 |
| 20260506152631 | 56 | 284 | 0.0 | 0.0 | 0.00 | 0.00 | 0.00 | 83 | 1019.6 |
| 20260506152131 | 56 | 285 | 0.0 | 0.0 | 0.00 | 0.00 | 0.00 | 84 | 1019.6 |
| 20260506151841 | 55 | 285 | 0.0 | 0.0 | 0.00 | 0.00 | 0.00 | 84 | 1019.5 |
| 20260506151114 | 55 | 285 | 0.0 | 0.0 | 0.00 | 0.00 | 0.00 | 84 | 1019.5 |
| 20260506150841 | 55 | 285 | 0.0 | 0.0 | 0.00 | 0.00 | 0.00 | 85 | 1019.6 |
| 20260506150104 | 55 | 285 | 0.0 | 0.0 | 0.00 | 0.00 | 0.00 | 85 | 1019.5 |
| 20260506145603 | 55 | 285 | 0.0 | 0.0 | 0.00 | 0.00 | 0.00 | 85 | 1019.5 |
| 20260506145104 | 55 | 285 | 0.0 | 0.0 | 0.00 | 0.00 | 0.00 | 85 | 1019.4 |
| 20260506144603 | 55 | 285 | 0.0 | 0.0 | 0.00 | 0.00 | 0.00 | 85 | 1019.4 |
| 20260506144103 | 55 | 285 | 0.0 | 0.0 | 0.00 | 0.00 | 0.00 | 85 | 1019.5 |
| 20260506143603 | 54 | 285 | 0.0 | 0.0 | 0.00 | 0.00 | 0.00 | 86 | 1019.4 |
| 20260506143102 | 54 | 285 | 0.0 | 0.0 | 0.00 | 0.00 | 0.00 | 86 | 1019.4 |
| 20260506142538 | 54 | 264 | 0.0 | 0.0 | 0.00 | 0.00 | 0.00 | 86 | 1019.2 |
| 20260506142032 | 54 | 264 | 0.0 | 0.0 | 0.00 | 0.00 | 0.00 | 87 | 1019.2 |
| 20260506141531 | 54 | 264 | 0.0 | 0.0 | 0.00 | 0.00 | 0.00 | 87 | 1019.2 |
| 20260506141032 | 54 | 264 | 0.0 | 0.0 | 0.00 | 0.00 | 0.00 | 88 | 1019.1 |
| 20260506140532 | 53 | 264 | 0.0 | 0.0 | 0.00 | 0.00 | 0.00 | 88 | 1019.0 |
| 20260506140031 | 53 | 264 | 0.0 | 0.0 | 0.00 | 0.00 | 0.00 | 88 | 1018.9 |
| 20260506135532 | 53 | 264 | 0.0 | 0.0 | 0.00 | 0.00 | 0.00 | 88 | 1018.9 |
| 20260506135031 | 53 | 264 | 0.0 | 0.0 | 0.00 | 0.00 | 0.00 | 88 | 1018.9 |
| 20260506134529 | 53 | 264 | 0.0 | 0.0 | 0.00 | 0.00 | 0.00 | 88 | 1018.8 |
| 20260506134004 | 53 | 264 | 0.0 | 0.0 | 0.00 | 0.00 | 0.00 | 88 | 1018.8 |
| 20260506133504 | 53 | 264 | 0.0 | 0.0 | 0.00 | 0.00 | 0.00 | 88 | 1018.8 |
| 20260506133004 | 53 | 264 | 0.0 | 0.0 | 0.00 | 0.00 | 0.00 | 87 | 1018.8 |
| 20260506132504 | 53 | 264 | 0.0 | 0.0 | 0.00 | 0.00 | 0.00 | 87 | 1018.8 |
| 20260506132005 | 53 | 264 | 0.0 | 0.0 | 0.00 | 0.00 | 0.00 | 87 | 1018.7 |
| 20260506131503 | 53 | 264 | 0.0 | 0.0 | 0.00 | 0.00 | 0.00 | 87 | 1018.7 |
| 20260506131004 | 53 | 264 | 0.0 | 0.0 | 0.00 | 0.00 | 0.00 | 87 | 1018.6 |
| 20260506130754 | 53 | 264 | 0.0 | 0.0 | 0.00 | 0.00 | 0.00 | 86 | 1018.6 |
| 20260506130004 | 53 | 264 | 0.0 | 0.0 | 0.00 | 0.00 | 0.00 | 86 | 1018.6 |
| 20260506125504 | 53 | 264 | 0.0 | 0.0 | 0.00 | 0.00 | 0.00 | 86 | 1018.6 |
| 20260506125004 | 54 | 264 | 0.0 | 0.0 | 0.00 | 0.00 | 0.00 | 86 | 1018.5 |
| 20260506124503 | 54 | 264 | 0.0 | 0.0 | 0.00 | 0.00 | 0.00 | 86 | 1018.5 |
| 20260506124444 | 54 | 264 | 0.0 | 0.0 | 0.00 | 0.00 | 0.00 | 85 | 1018.5 |
| 20260506123504 | 54 | 264 | 0.0 | 0.0 | 0.00 | 0.00 | 0.00 | 85 | 1018.5 |
| 20260506123004 | 54 | 264 | 0.0 | 0.0 | 0.00 | 0.00 | 0.00 | 85 | 1018.5 |
| 20260506122503 | 54 | 264 | 0.0 | 0.0 | 0.00 | 0.00 | 0.00 | 85 | 1018.5 |
| 20260506122238 | 54 | 264 | 0.0 | 0.0 | 0.00 | 0.00 | 0.00 | 85 | 1018.4 |
| 20260506121433 | 54 | 264 | 0.0 | 0.0 | 0.00 | 0.00 | 0.00 | 85 | 1018.5 |
| 20260506120931 | 54 | 264 | 0.0 | 0.0 | 0.00 | 0.00 | 0.00 | 85 | 1018.5 |
| 20260506120439 | 54 | 264 | 0.0 | 0.0 | 0.00 | 0.00 | 0.00 | 85 | 1018.5 |
| 20260506120156 | 54 | 264 | 0.0 | 0.0 | 0.00 | 0.00 | 0.00 | 85 | 1018.4 |
| 20260506115435 | 54 | 264 | 0.0 | 0.0 | 0.00 | 0.00 | 0.00 | 85 | 1018.4 |
| 20260506114931 | 54 | 264 | 0.0 | 0.0 | 0.00 | 0.00 | 0.00 | 85 | 1018.3 |
| 20260506114432 | 54 | 264 | 0.0 | 0.0 | 0.00 | 0.00 | 0.00 | 85 | 1018.3 |
| 20260506113930 | 54 | 264 | 0.0 | 0.0 | 0.00 | 0.00 | 0.00 | 85 | 1018.3 |
| 20260506113434 | 54 | 264 | 0.0 | 0.0 | 0.00 | 0.00 | 0.00 | 85 | 1018.2 |
| 20260506112932 | 54 | 264 | 0.0 | 0.0 | 0.00 | 0.00 | 0.00 | 85 | 1018.2 |
| 20260506112433 | 54 | 264 | 0.0 | 0.0 | 0.00 | 0.00 | 0.00 | 85 | 1018.2 |
| 20260506111931 | 54 | 264 | 0.0 | 0.0 | 0.00 | 0.00 | 0.00 | 85 | 1018.1 |
| 20260506111433 | 54 | 295 | 0.0 | 0.0 | 0.00 | 0.00 | 0.00 | 85 | 1018.1 |
| 20260506110931 | 54 | 296 | 0.0 | 0.0 | 0.00 | 0.00 | 0.00 | 85 | 1018.0 |
| 20260506110433 | 54 | 295 | 0.0 | 0.0 | 0.00 | 0.00 | 0.00 | 85 | 1018.0 |
| 20260506105931 | 54 | 295 | 0.0 | 0.0 | 0.00 | 0.00 | 0.00 | 85 | 1017.9 |
| 20260506105434 | 54 | 296 | 0.0 | 0.0 | 0.00 | 0.00 | 0.00 | 85 | 1017.9 |
| 20260506104931 | 54 | 295 | 0.0 | 0.0 | 0.00 | 0.00 | 0.00 | 85 | 1017.9 |
| 20260506104433 | 54 | 295 | 0.0 | 0.0 | 0.00 | 0.00 | 0.00 | 85 | 1017.9 |
| 20260506103931 | 54 | 295 | 0.0 | 0.0 | 0.00 | 0.00 | 0.00 | 85 | 1017.9 |
| 20260506103658 | 54 | 296 | 0.0 | 0.0 | 0.00 | 0.00 | 0.00 | 85 | 1017.9 |
| 20260506102932 | 54 | 296 | 0.0 | 0.0 | 0.00 | 0.00 | 0.00 | 85 | 1017.9 |
| 20260506102433 | 54 | 296 | 0.0 | 0.0 | 0.00 | 0.00 | 0.00 | 85 | 1017.8 |
| 20260506101930 | 54 | 296 | 0.0 | 0.0 | 0.00 | 0.00 | 0.00 | 85 | 1017.8 |
| 20260506101433 | 54 | 296 | 0.0 | 0.0 | 0.00 | 0.00 | 0.00 | 85 | 1017.8 |
| 20260506100931 | 54 | 296 | 0.0 | 0.0 | 0.00 | 0.00 | 0.00 | 85 | 1017.8 |
| 20260506100432 | 54 | 295 | 0.0 | 1.7 | 0.00 | 0.00 | 0.00 | 85 | 1017.7 |
| 20260506095931 | 54 | 296 | 0.0 | 1.7 | 0.00 | 0.00 | 0.00 | 85 | 1017.8 |
| 20260506095433 | 54 | 280 | 0.0 | 1.7 | 0.00 | 0.00 | 0.00 | 85 | 1017.8 |
| 20260506094931 | 54 | 280 | 0.0 | 1.7 | 0.00 | 0.00 | 0.00 | 85 | 1017.8 |
| 20260506094432 | 54 | 280 | 0.0 | 0.0 | 0.00 | 0.00 | 0.00 | 85 | 1017.7 |
| 20260506094150 | 54 | 280 | 0.0 | 0.9 | 0.00 | 0.00 | 0.00 | 85 | 1017.7 |
| 20260506093658 | 54 | 280 | 0.0 | 0.9 | 0.00 | 0.00 | 0.00 | 85 | 1017.7 |
| 20260506092931 | 54 | 272 | 0.0 | 1.7 | 0.00 | 0.00 | 0.00 | 85 | 1017.7 |
| 20260506092432 | 54 | 275 | 0.0 | 1.7 | 0.00 | 0.00 | 0.00 | 85 | 1017.7 |
| 20260506091932 | 54 | 281 | 0.0 | 1.7 | 0.00 | 0.00 | 0.00 | 85 | 1017.8 |
| 20260506091433 | 54 | 285 | 0.0 | 0.0 | 0.00 | 0.00 | 0.00 | 86 | 1017.7 |
| 20260506090926 | 54 | 285 | 0.0 | 0.0 | 0.00 | 0.01 | 0.00 | 86 | 1017.7 |
| 20260506090425 | 54 | 286 | 0.0 | 0.0 | 0.00 | 0.01 | 0.00 | 86 | 1017.7 |
| 20260506090158 | 54 | 286 | 0.0 | 0.9 | 0.00 | 0.01 | 0.00 | 86 | 1017.7 |
| 20260506085405 | 53 | 286 | 0.0 | 0.9 | 0.00 | 0.02 | 0.00 | 87 | 1017.8 |
| 20260506084904 | 53 | 286 | 0.0 | 0.9 | 0.00 | 0.02 | 0.00 | 87 | 1017.8 |
| 20260506084405 | 53 | 288 | 0.0 | 0.9 | 0.00 | 0.02 | 0.00 | 88 | 1017.8 |
| 20260506083903 | 53 | 257 | 0.0 | 0.9 | 0.00 | 0.03 | 0.00 | 89 | 1017.7 |
| 20260506083405 | 52 | 283 | 0.0 | 0.0 | 0.00 | 0.03 | 0.00 | 89 | 1017.8 |
| 20260506083154 | 52 | 283 | 0.0 | 0.0 | 0.00 | 0.03 | 0.00 | 89 | 1017.8 |
| 20260506082630 | 52 | 283 | 0.0 | 0.0 | 0.00 | 0.03 | 0.00 | 90 | 1017.8 |
| 20260506081903 | 52 | 283 | 0.0 | 0.0 | 0.00 | 0.03 | 0.00 | 90 | 1017.6 |
| 20260506081625 | 51 | 283 | 0.0 | 0.0 | 0.00 | 0.03 | 0.00 | 90 | 1017.7 |
| 20260506080904 | 51 | 283 | 0.0 | 0.0 | 0.00 | 0.03 | 0.00 | 90 | 1017.8 |
| 20260506080404 | 51 | 283 | 0.0 | 0.0 | 0.00 | 0.04 | 0.00 | 90 | 1017.6 |
| 20260506072904 | 51 | 283 | 0.0 | 0.0 | 0.00 | 0.08 | 0.00 | 88 | 1017.5 |
| 20260506072403 | 51 | 283 | 0.0 | 0.0 | 0.00 | 0.08 | 0.00 | 88 | 1017.5 |
| 20260506071904 | 52 | 283 | 0.0 | 0.0 | 0.00 | 0.09 | 0.00 | 88 | 1017.4 |
| 20260506071403 | 52 | 283 | 0.0 | 0.0 | 0.00 | 0.09 | 0.00 | 87 | 1017.4 |
| 20260506070903 | 52 | 283 | 0.0 | 0.0 | 0.00 | 0.09 | 0.00 | 87 | 1017.3 |
| 20260506070403 | 52 | 283 | 0.0 | 0.0 | 0.00 | 0.10 | 0.00 | 87 | 1017.3 |
| 20260506061904 | 53 | 297 | 0.0 | 0.0 | 0.00 | 0.14 | 0.10 | 85 | 1017.0 |
| 20260506061403 | 54 | 277 | 0.0 | 0.0 | 0.00 | 0.14 | 0.10 | 85 | 1016.9 |
| 20260506060903 | 54 | 277 | 0.0 | 0.0 | 0.00 | 0.15 | 0.10 | 84 | 1016.9 |
| 20260506060403 | 54 | 277 | 0.0 | 0.0 | 0.00 | 0.15 | 0.10 | 84 | 1016.8 |
| 20260506051404 | 55 | 300 | 0.0 | 0.9 | 0.00 | 0.17 | 0.10 | 82 | 1016.6 |
| 20260506050903 | 56 | 300 | 0.0 | 3.5 | 0.00 | 0.17 | 0.10 | 81 | 1016.4 |
| 20260506050633 | 56 | 255 | 0.0 | 3.5 | 0.00 | 0.17 | 0.10 | 81 | 1016.4 |
| 20260506044903 | 56 | 264 | 0.0 | 2.6 | 0.00 | 0.18 | 0.10 | 80 | 1016.3 |
| 20260506044403 | 56 | 262 | 0.0 | 1.7 | 0.00 | 0.19 | 0.10 | 80 | 1016.3 |
| 20260506043904 | 56 | 276 | 0.0 | 1.7 | 0.00 | 0.20 | 0.10 | 79 | 1016.2 |
| 20260506043403 | 56 | 278 | 0.0 | 2.6 | 0.00 | 0.20 | 0.10 | 80 | 1016.2 |
| 20260506042903 | 57 | 272 | 0.9 | 2.6 | 0.00 | 0.21 | 0.10 | 79 | 1016.1 |
| 20260506042404 | 57 | 272 | 0.0 | 2.6 | 0.00 | 0.21 | 0.10 | 79 | 1016.0 |
| 20260506041903 | 57 | 272 | 0.0 | 1.7 | 0.00 | 0.21 | 0.10 | 79 | 1015.9 |
| 20260506041403 | 57 | 290 | 0.0 | 1.7 | 0.00 | 0.22 | 0.10 | 79 | 1015.8 |
| 20260506040904 | 57 | 289 | 0.0 | 2.6 | 0.00 | 0.22 | 0.10 | 79 | 1015.8 |
| 20260506040631 | 57 | 284 | 0.0 | 3.5 | 0.00 | 0.22 | 0.10 | 78 | 1015.7 |
| 20260506035903 | 57 | 288 | 0.9 | 3.5 | 0.00 | 0.22 | 0.10 | 78 | 1015.7 |
| 20260506035404 | 58 | 212 | 0.9 | 3.5 | 0.00 | 0.22 | 0.10 | 78 | 1015.7 |
| 20260506034903 | 58 | 263 | 0.0 | 3.5 | 0.00 | 0.22 | 0.10 | 78 | 1015.7 |
| 20260506034405 | 58 | 274 | 0.0 | 4.3 | 0.00 | 0.22 | 0.10 | 77 | 1015.6 |
| 20260506033903 | 58 | 268 | 0.9 | 4.3 | 0.00 | 0.22 | 0.10 | 77 | 1015.6 |
| 20260506033403 | 58 | 198 | 0.9 | 6.1 | 0.00 | 0.22 | 0.10 | 77 | 1015.4 |
| 20260506032904 | 58 | 255 | 0.9 | 6.1 | 0.00 | 0.22 | 0.10 | 76 | 1015.4 |
| 20260506032404 | 58 | 276 | 0.9 | 4.3 | 0.00 | 0.22 | 0.10 | 76 | 1015.2 |
| 20260506031903 | 58 | 284 | 1.7 | 4.3 | 0.00 | 0.22 | 0.10 | 76 | 1015.1 |
| 20260506031403 | 58 | 266 | 0.9 | 4.3 | 0.00 | 0.22 | 0.10 | 75 | 1015.0 |
| 20260506031341 | 58 | 279 | 0.0 | 4.3 | 0.00 | 0.22 | 0.10 | 76 | 1015.0 |
| 20260506030403 | 58 | 301 | 0.0 | 2.6 | 0.00 | 0.22 | 0.10 | 76 | 1015.0 |
| 20260506030355 | 58 | 274 | 0.9 | 4.3 | 0.00 | 0.22 | 0.10 | 76 | 1014.9 |
| 20260506025403 | 58 | 280 | 1.7 | 4.3 | 0.00 | 0.22 | 0.10 | 75 | 1014.9 |
| 20260506024904 | 59 | 289 | 0.9 | 4.3 | 0.00 | 0.22 | 0.10 | 75 | 1014.9 |
| 20260506024403 | 59 | 285 | 0.9 | 4.3 | 0.00 | 0.22 | 0.10 | 76 | 1014.8 |
| 20260506023904 | 59 | 281 | 0.9 | 3.5 | 0.00 | 0.22 | 0.10 | 75 | 1014.7 |
| 20260506023359 | 59 | 278 | 0.9 | 3.5 | 0.00 | 0.22 | 0.10 | 75 | 1014.7 |
| 20260506023116 | 59 | 277 | 0.0 | 3.5 | 0.00 | 0.22 | 0.10 | 75 | 1014.6 |
| 20260506022404 | 59 | 278 | 0.0 | 2.6 | 0.00 | 0.22 | 0.10 | 75 | 1014.6 |
| 20260506021835 | 60 | 291 | 0.9 | 3.5 | 0.00 | 0.22 | 0.10 | 74 | 1014.5 |
| 20260506021335 | 60 | 287 | 0.9 | 3.5 | 0.00 | 0.22 | 0.10 | 74 | 1014.5 |
| 20260506021050 | 60 | 264 | 0.9 | 4.3 | 0.00 | 0.22 | 0.10 | 74 | 1014.5 |
| 20260506020333 | 60 | 276 | 0.9 | 4.3 | 0.00 | 0.22 | 0.10 | 74 | 1014.5 |
| 20260506015831 | 60 | 269 | 0.9 | 2.6 | 0.00 | 0.22 | 0.10 | 74 | 1014.4 |
| 20260506015349 | 61 | 286 | 0.9 | 4.3 | 0.00 | 0.22 | 0.10 | 74 | 1014.3 |
| 20260506015343 | 61 | 281 | 0.9 | 4.3 | 0.00 | 0.22 | 0.10 | 74 | 1014.4 |
| 20260506014332 | 61 | 300 | 0.9 | 2.6 | 0.00 | 0.22 | 0.10 | 73 | 1014.3 |
| 20260506013831 | 61 | 293 | 0.0 | 3.5 | 0.00 | 0.22 | 0.10 | 73 | 1014.2 |
| 20260506013333 | 62 | 262 | 0.0 | 3.5 | 0.00 | 0.22 | 0.10 | 73 | 1014.2 |
| 20260506012831 | 62 | 285 | 0.9 | 2.6 | 0.00 | 0.22 | 0.10 | 73 | 1014.1 |
| 20260506012333 | 62 | 274 | 0.0 | 3.5 | 0.00 | 0.22 | 0.10 | 73 | 1014.1 |
| 20260506011831 | 62 | 212 | 0.0 | 2.6 | 0.00 | 0.22 | 0.10 | 72 | 1014.2 |
| 20260506011333 | 62 | 219 | 0.9 | 5.2 | 0.00 | 0.22 | 0.10 | 73 | 1014.2 |
| 20260506010831 | 62 | 243 | 0.9 | 5.2 | 0.00 | 0.22 | 0.10 | 72 | 1014.2 |
| 20260506010553 | 62 | 282 | 0.9 | 6.1 | 0.00 | 0.22 | 0.10 | 72 | 1014.1 |
| 20260506010055 | 63 | 272 | 1.7 | 6.1 | 0.00 | 0.22 | 0.10 | 71 | 1014.2 |
| 20260506005332 | 63 | 288 | 1.7 | 7.0 | 0.00 | 0.22 | 0.10 | 71 | 1014.1 |
| 20260506004831 | 64 | 262 | 0.9 | 7.0 | 0.00 | 0.22 | 0.10 | 70 | 1014.0 |
| 20260506004333 | 64 | 256 | 0.9 | 5.2 | 0.00 | 0.22 | 0.10 | 69 | 1014.1 |
| 20260506003832 | 65 | 283 | 0.9 | 5.2 | 0.00 | 0.22 | 0.10 | 68 | 1014.1 |
| 20260506003557 | 65 | 273 | 0.9 | 3.5 | 0.00 | 0.22 | 0.10 | 66 | 1014.1 |
| 20260506002831 | 65 | 288 | 0.0 | 0.9 | 0.00 | 0.22 | 0.10 | 67 | 1014.0 |
| 20260506002333 | 65 | 315 | 0.0 | 2.6 | 0.00 | 0.22 | 0.10 | 68 | 1013.9 |
| 20260506001831 | 65 | 268 | 0.0 | 2.6 | 0.00 | 0.22 | 0.10 | 68 | 1013.9 |
| 20260506001332 | 64 | 269 | 0.0 | 2.6 | 0.00 | 0.22 | 0.10 | 67 | 1014.0 |
| 20260506000831 | 64 | 241 | 0.0 | 2.6 | 0.00 | 0.22 | 0.10 | 68 | 1013.9 |
| 20260506000805 | 64 | 302 | 0.0 | 0.9 | 0.00 | 0.22 | 0.10 | 69 | 1014.0 |
| 20260506000758 | 64 | 217 | 0.0 | 0.9 | 0.00 | 0.22 | 0.10 | 70 | 1014.0 |
| 20260505235340 | 63 | 279 | 0.0 | 0.9 | 0.00 | 0.22 | 0.10 | 71 | 1013.9 |
| 20260505234831 | 63 | 278 | 0.0 | 2.6 | 0.00 | 0.22 | 0.10 | 71 | 1013.9 |
| 20260505234333 | 63 | 278 | 0.0 | 2.6 | 0.00 | 0.22 | 0.10 | 71 | 1014.0 |
| 20260505233831 | 63 | 290 | 0.0 | 2.6 | 0.00 | 0.22 | 0.10 | 71 | 1014.0 |
| 20260505233551 | 63 | 293 | 0.9 | 3.5 | 0.00 | 0.22 | 0.10 | 70 | 1014.0 |
| 20260505232831 | 63 | 282 | 0.9 | 3.5 | 0.00 | 0.22 | 0.10 | 70 | 1014.1 |
| 20260505232333 | 63 | 298 | 0.0 | 3.5 | 0.00 | 0.22 | 0.10 | 73 | 1014.1 |
| 20260505231832 | 63 | 298 | 0.9 | 3.5 | 0.00 | 0.22 | 0.10 | 71 | 1014.1 |
| 20260505231333 | 63 | 278 | 0.0 | 2.6 | 0.00 | 0.22 | 0.10 | 71 | 1014.1 |
| 20260505230831 | 63 | 293 | 0.0 | 0.9 | 0.00 | 0.22 | 0.10 | 71 | 1014.1 |
| 20260505230554 | 63 | 293 | 0.0 | 0.9 | 0.00 | 0.22 | 0.10 | 71 | 1014.1 |
| 20260505225832 | 64 | 295 | 0.0 | 2.6 | 0.00 | 0.22 | 0.10 | 71 | 1014.1 |
| 20260505225333 | 64 | 285 | 0.0 | 2.6 | 0.00 | 0.22 | 0.10 | 71 | 1014.1 |
| 20260505224807 | 64 | 276 | 0.0 | 1.7 | 0.00 | 0.22 | 0.10 | 72 | 1014.1 |
| 20260505224311 | 64 | 276 | 0.0 | 1.7 | 0.00 | 0.22 | 0.10 | 71 | 1014.1 |
| 20260505223804 | 64 | 275 | 0.0 | 4.3 | 0.00 | 0.22 | 0.10 | 70 | 1014.1 |
| 20260505223305 | 64 | 283 | 0.0 | 4.3 | 0.00 | 0.22 | 0.10 | 70 | 1014.1 |
| 20260505223021 | 64 | 244 | 0.0 | 0.9 | 0.00 | 0.22 | 0.10 | 71 | 1014.1 |
| 20260505222306 | 64 | 262 | 0.0 | 0.0 | 0.00 | 0.22 | 0.10 | 71 | 1014.2 |
| 20260505221803 | 64 | 262 | 0.0 | 0.0 | 0.00 | 0.22 | 0.10 | 71 | 1014.2 |
| 20260505221305 | 64 | 307 | 0.0 | 0.9 | 0.00 | 0.22 | 0.10 | 72 | 1014.3 |
| 20260505220803 | 64 | 307 | 0.0 | 1.7 | 0.00 | 0.22 | 0.10 | 72 | 1014.3 |
| 20260505220305 | 63 | 301 | 0.0 | 1.7 | 0.00 | 0.22 | 0.10 | 72 | 1014.2 |
| 20260505215803 | 63 | 277 | 0.0 | 0.0 | 0.00 | 0.22 | 0.10 | 73 | 1014.3 |
| 20260505215306 | 63 | 277 | 0.0 | 3.5 | 0.00 | 0.22 | 0.10 | 73 | 1014.3 |
| 20260505215056 | 63 | 277 | 0.0 | 3.5 | 0.00 | 0.22 | 0.10 | 72 | 1014.3 |
| 20260505214304 | 64 | 302 | 0.0 | 2.6 | 0.00 | 0.22 | 0.10 | 71 | 1014.4 |
| 20260505213803 | 64 | 293 | 0.0 | 2.6 | 0.00 | 0.22 | 0.10 | 71 | 1014.4 |
| 20260505213304 | 64 | 84 | 0.0 | 0.0 | 0.00 | 0.22 | 0.10 | 70 | 1014.4 |
| 20260505212803 | 65 | 104 | 0.0 | 2.6 | 0.00 | 0.22 | 0.10 | 70 | 1014.5 |
| 20260505212306 | 65 | 105 | 0.0 | 2.6 | 0.00 | 0.22 | 0.10 | 70 | 1014.5 |
| 20260505211804 | 65 | 293 | 0.0 | 0.0 | 0.00 | 0.22 | 0.10 | 68 | 1014.4 |
| 20260505211305 | 65 | 294 | 0.0 | 0.9 | 0.00 | 0.22 | 0.10 | 72 | 1014.5 |
| 20260505210804 | 64 | 295 | 0.0 | 0.9 | 0.00 | 0.22 | 0.10 | 73 | 1014.4 |
| 20260505210303 | 63 | 297 | 0.0 | 0.9 | 0.00 | 0.22 | 0.10 | 75 | 1014.5 |
| 20260505205803 | 63 | 297 | 0.0 | 0.9 | 0.00 | 0.22 | 0.10 | 77 | 1014.5 |
| 20260505205309 | 62 | 270 | 0.0 | 1.7 | 0.00 | 0.22 | 0.10 | 75 | 1014.5 |
| 20260505204803 | 62 | 271 | 0.0 | 1.7 | 0.00 | 0.22 | 0.10 | 76 | 1014.6 |
| 20260505204303 | 62 | 288 | 0.0 | 0.9 | 0.00 | 0.22 | 0.10 | 74 | 1014.6 |
| 20260505203804 | 62 | 229 | 0.0 | 0.0 | 0.00 | 0.22 | 0.10 | 76 | 1014.6 |
| 20260505203303 | 62 | 229 | 0.0 | 0.0 | 0.00 | 0.22 | 0.10 | 76 | 1014.6 |
| 20260505202803 | 61 | 256 | 0.0 | 0.0 | 0.00 | 0.22 | 0.10 | 78 | 1014.6 |
| 20260505202526 | 61 | 271 | 0.0 | 0.0 | 0.00 | 0.22 | 0.10 | 76 | 1014.7 |